Regional Weather Roundup
Issued by NWS

Home | Current Version | Previous Version | Text Only | Print | Product List | Glossary On
Versions: 1 2 3 4 5 6 7 8 9 10 11 12 13 14 15 16 17 18 19 20 21 22 23 24 25 26 27 28 29 30 31 32 33 34 35 36 37 38 39 40 41 42 43 44 45 46 47 48 49 50
000
ASHW40 PHFO 261530
RWRHI

WEATHER ROUNDUP FOR HAWAII
NATIONAL WEATHER SERVICE HONOLULU HI
500 AM HST WED NOV 26 2014

THIS IS AN AUTOMATED REPORT THAT HAS NOT BEEN QUALITY CONTROLLED.

NOTE..."FAIR" INDICATES FEW OR NO CLOUDS BELOW 12,000 FEET WITH NO
SIGNIFICANT WEATHER AND/OR OBSTRUCTIONS TO VISIBILITY.

* - THESE SITES REPORT LIMITED FIELDS

HIZ001>004-261600-
KAUAI-NIIHAU-

CITY           SKY/WX    TMP DP  RH WIND       PRES   REMARKS
LIHUE APT      CLOUDY    73  55  53 NE12G20   30.08R
PORT ALLEN*      N/A     72 N/A N/A NE8         N/A
POIPU*           N/A     72 N/A N/A N6G13       N/A
PRINCEVILLE*     N/A     68 N/A N/A MISG        N/A
KOKOLE POINT*  NOT AVBL
MOLOAA DAIRY*  NOT AVBL
WAIMEA HTS*    NOT AVBL
PUU OPAE*      NOT AVBL
PUU LUA*       NOT AVBL
MAKAHA RIDGE*  NOT AVBL
$$

HIZ005>011-261600-
OAHU-

CITY           SKY/WX    TMP DP  RH WIND       PRES   REMARKS
HONOLULU       MOCLDY    72  59  63 N6        30.02R
KALAELOA       CLEAR     70  57  63 VRB6      30.04
KANEOHE MCB    CLOUDY    74  58  57 NE8       30.05R
WHEELER FIELD  MOCLDY    64  57  79 NW8       30.05R
BELLOWS*         N/A    N/A N/A N/A NE15        N/A
KAHUKU*          N/A    N/A N/A N/A NE5         N/A
WHEELER*       NOT AVBL
WAIANAE HARBOR NOT AVBL
DILLINGHAM*      N/A     64  57  77 SE2         N/A
KAHUKU TRN*      N/A     70  57  64 NE5G13      N/A
KAWAILOA*        N/A     66  57  72 NE5         N/A
KII*             N/A    N/A N/A N/A NE12G18     N/A
MAKUA RANGE*     N/A     72  57  60 E8G14       N/A
OAHU FOREST NW NOT AVBL
SCHOFIELD BRK*   N/A     59  55  88 MISG        N/A
SCHOFIELD S*   NOT AVBL
WAIANAE VLY*   NOT AVBL
KUAOKALA*      NOT AVBL
HONOULIUULI*   NOT AVBL
MOKUOLOE IS*     N/A    N/A N/A N/A MISG        N/A
PALEHUA*       NOT AVBL
WAIAWA PHB*    NOT AVBL
$$

HIZ012>013-261600-
MOLOKAI-

CITY           SKY/WX    TMP DP  RH WIND       PRES   REMARKS
MOLOKAI AIRPT  CLEAR     70  62  76 NE13G21   30.03S
KALAUPAPA      NOT AVBL
MAKAPULAPAI*   NOT AVBL
MOLOKAI 1*     NOT AVBL
PUU ALII*        N/A     55  55 100 E1          N/A
$$

HIZ016-261600-
KAHOOLAWE-

CITY           SKY/WX    TMP DP  RH WIND       PRES   REMARKS
KAHOOLAWE*     NOT AVBL
HAKIOAWA*      NOT AVBL
HONOKANAIA*      N/A     73  64  73 VRB14G24  30.02S
KANELOA*         N/A     72  64  78 NE12G25   29.23S
KEALIALALO*    NOT AVBL
LUA MAKIKA*    NOT AVBL
$$

HIZ014>015-261600-
LANAI-

CITY           SKY/WX    TMP DP  RH WIND       PRES   REMARKS
LANAI CITY     PTCLDY    68  61  77 NE22      30.04
LANAI 1*       NOT AVBL
$$

HIZ017>028-261600-
MAUI-

CITY           SKY/WX    TMP DP  RH WIND       PRES   REMARKS
KAHULUI        MOCLDY    71  63  75 NE10G17   30.04R
KAPALUA-W MAUI NOT AVBL
HANA AIRPORT   LGT RAIN  66  64  94 CALM      30.07R
HANA*            N/A     68 N/A N/A S3          N/A
HALEAKALA SUMM   N/A     48 -27   3 NW13G24     N/A
MAALAEA BAY*   NOT AVBL
HALEAKALA*     NOT AVBL
KAUPO GAP*     NOT AVBL
KULA 1*          N/A     51   0  12 E5          N/A
$$

HIZ023>026-261600-
BIG ISLAND OF HAWAII COAST AND LOWER SLOPES-

CITY           SKY/WX    TMP DP  RH WIND       PRES   REMARKS
KAILUA KONA    CLEAR     72  62  71 E5        29.96R
HILO           CLOUDY    63  63 100 W5        30.03R
HONOKAA*       NOT AVBL
KAWAIHAE MWT*    N/A     72 N/A N/A NE2         N/A
KAWAIHAE*        N/A     73 N/A N/A NE2         N/A
SOUTH POINT*     N/A     68 N/A N/A N9          N/A
UPOLU AIRPORT*   N/A    N/A N/A N/A E13G22      N/A
KAMUELA*       MOSUNNY   61  59  94 NE15      30.10R FOG
HAKALAU*         N/A     48  48 100 SW3         N/A
KALOKO-HONOKO*   N/A     68  61  77 NE3       29.95R
PALI 2*          N/A     64  57  77 N15G21      N/A
KEALAKOMO*       N/A     72  61  68 VRB20G31    N/A
KAUPULEHU*     NOT AVBL
KAPAPALA*        N/A     59  57  93 CALM        N/A
LOWER KAHUKU*    N/A     57  55  94 N2          N/A
PUHE CS*       NOT AVBL
PUHO CS*         N/A     70  54  57 E3          N/A
PTA KEAMUKU*     N/A     55  50  82 E1G12       N/A
WAIKOLOA*      NOT AVBL
$$

HIZ027>028-261600-
BIG ISLAND OF HAWAII INTERIOR AND SUMMMITS-

CITY           SKY/WX    TMP DP  RH WIND       PRES   REMARKS
BRADSHAW FIELD CLOUDY    44  31  58 SE7       30.32R
MK VISITOR CEN NOT AVBL
MAUNA KEA*       N/A     39  -8  13 W8          N/A
MAUNA LOA*       N/A     43 -24   5 MISG        N/A
MAUNA LOA 1*   NOT AVBL
PTA KIPUKA*      N/A    N/A N/A N/A SE5         N/A
PTA RANGE 17*    N/A     52  48  87 E7          N/A
PTA WEST*        N/A     52  45  76 E10         N/A
NENE CABIN*      N/A    N/A N/A N/A VRB5        N/A
AHUMOA*        NOT AVBL
PTA PORTABLE*  NOT AVBL
PUU MALI*      NOT AVBL
$$

HIC003-261600-
NORTHWEST ISLANDS-

CITY           SKY/WX    TMP DP  RH WIND       PRES   REMARKS
MIDWAY ISLAND  CLEAR     73  66  78 S13       30.12F
MIDWAY NOS*    NOT AVBL
FRENCH FRIGATE NOT AVBL
$$

PHZ110>124-180-261600-
BUOY REPORTS

STATION/POSITION TIME  TEMP    WIND        PRES    WAVE   SWELL
                       AIR SEA DIR/SP/G            HT/PER HT/DIR
                 (UTC) (F)     (DEG/KT/KT) (MB)    (FT/S) (FT/D)
BUOY 51001       NOT AVBL
BUOY 51101       1500   71 77   40/ 10/ 12 1020.1R   8/ 9   7/ 20
BUOY 51100       1400   71 77   70/ 10/ 14 1017.9R
BUOY 51003       1500   78 80   60/ 16/ 17 1015.2R   8/13   7
BUOY 51004       1436   78 80   60/ 17/ 21 1012.9S   9/10   7/ 50
BARBERS PT BUOY  NOT AVBL
WAIMEA BAY BUOY  1500      79                N/A     8/11
KAILUA BAY BUOY  1500      79                N/A     7/10   3/360
LANAI BUOY       1500      79                N/A     3/13   2/290
BARBERS PT 2     1500      78                N/A     4/13   3/300
PAUWELA MAUI     1500      79                N/A     8/13
HILO             1500      79                N/A     9/10   3/350
KANEOHE BAY BUOY 1500      78                N/A     6/ 9   3/350
HANALEI KAUAI    NOT AVBL
KAHULUI HARBOR   1500   73 78   40/  9/ 12 1017.1R
HONOLULU HARBOR  1500   73      40/  2/  4 1017.2R
KILO NALU        NOT AVBL
HILO HARBOR      1500   69     250/  1/  4 1016.3R
MOKUOLOE         1500      76              1017.7R
NAWILIWILI       1500      79                N/A
WHOTS BUOY       NOT AVBL
BUOY 51028       NOT AVBL
$$

......................KEY........................................
  SKY/WX - SKY CONDITIONS/PRESENT WEATHER
  TMP    - TEMPERATURE IN FAHRENHEIT
  DWPT   - DEWPOINT IN FAHRENHEIT
  RH     - RELATIVE HUMIDITY IN PERCENT
  WIND   - DIRECTION AND SPEED /MPH FOR ISLANDS...KTS FOR BUOYS/
  PRES   - MEAN SEA LEVEL PRESSURE IN INCHES OF HG
  VSB    - VISIBILITY IN MILES
  HX     - HEAT INDEX
  WCI    - WIND CHILL INDEX
  VRB    - VARIABLE WIND DIRECTION
  N/A    - NOT AVAILABLE


USA.gov is the U.S. government's official web portal to all federal, state and local government web resources and services.